[[{"header":{"parameterUnit":"m.s-1","parameterCategory":1,"la1":30.2991,"la2":30.254,"lo1":-89.0895,"lo2":-89.0444,"dy":0.0017,"dx":0.0017,"nx":28,"ny":28,"refTime":"2026-01-03T03:00:00:Z","depth":0,"parameterNumber":2,"parameterNumberName":"U-component_of_WINDS"},"data":[0,0,0,0,0,0,0,0,0,0,0,0,0,0,0,0,0,0,0,0,0,0,0,0,0,0,0,0,0,0,0,0,0,0,0,0,0,0,0,0,0,0,0,0,0,0,0,0,0,0,0,0,0,0,0,0,0,0,1.5229,1.5229,0,1.5258,1.5259,1.5259,1.521,1.5208,1.5207,1.5205,1.524,1.5242,1.5245,0,0,0,0,0,0,0,0,0,0,0,0,0,1.5134,1.5136,1.5229,1.5229,1.5229,1.5258,1.5259,1.5259,1.521,1.5208,1.5206,1.5204,1.5239,1.5242,1.5245,0,0,0,0,0,0,0,0,0,0,0,0,0,1.5171,1.5137,1.5229,1.5208,1.5207,1.5258,1.5259,1.5259,1.5211,1.5208,1.5206,1.5203,1.5238,1.5242,1.5245,1.5319,0,0,1.5257,1.5258,0,0,0,0,0,0,0,0,1.5169,1.5174,1.5211,1.521,1.5208,1.5228,1.5238,1.528,1.5211,1.5209,1.5205,1.5202,1.5238,1.5242,1.5253,1.5321,1.5322,1.5257,1.5259,1.5261,1.5262,0,0,0,0,0,0,0,1.5166,1.5173,1.5241,1.5212,1.521,1.5199,1.5202,1.5246,1.5238,1.5209,1.5206,1.521,1.5237,1.5249,1.5253,1.5323,1.5257,1.526,1.5263,1.5264,1.5454,1.5457,0,0,0,0,0,0,1.5166,1.5171,1.524,1.5241,1.5182,1.5203,1.5206,1.5224,1.5237,1.5237,1.5212,1.5207,1.5244,1.5249,1.5254,1.5342,1.5261,1.5264,1.5267,1.5451,1.5455,1.5458,0,0,0,0,0,0,1.5164,1.5172,1.5238,1.5205,1.5213,1.5207,1.5228,1.5226,1.5238,1.5239,1.5238,1.5226,1.5242,1.5249,1.5303,1.5343,1.5266,1.527,1.5448,1.5452,1.5456,1.5519,0,0,0,0,0,0,1.5161,1.5172,1.5199,1.5206,1.5215,1.5286,1.5231,1.5228,1.5245,1.5239,1.5252,1.5252,1.5241,1.5298,1.5307,1.5347,1.5273,1.5444,1.545,1.5455,1.5513,1.5525,1.5534,0,0,0,0,0,1.5158,1.5216,1.52,1.5209,1.5248,1.5288,1.5293,1.5278,1.5248,1.5276,1.5276,1.5251,1.5337,1.5304,1.5314,1.5355,1.5442,1.5448,1.5455,1.5508,1.5522,1.5534,0,0,0,0,0,0,1.5214,1.5216,1.5199,1.5261,1.5274,1.5279,1.5314,1.5294,1.5317,1.5311,1.5293,1.5297,1.5355,1.5361,1.5324,1.5428,1.5385,1.5393,1.5422,1.5435,1.5446,1.5444,1.5276,0,0,0,0,0,1.5234,1.5264,1.5265,1.532,1.5327,1.532,1.5336,1.5324,1.5338,1.5344,1.5348,1.5364,1.5395,1.5415,1.5443,1.5514,1.5516,1.5547,1.5558,1.5566,1.5574,1.5613,1.5627,1.5478,1.5478,1.5478,0,0,1.5274,1.5279,1.53,1.5331,1.534,1.5374,1.5325,1.5362,1.5388,1.535,1.5401,1.5405,1.5422,1.5485,1.5513,1.5491,1.5616,1.5574,1.5581,1.5584,1.5621,1.5635,1.5647,1.5483,1.5482,1.5481,0,0,1.5366,1.5372,1.5418,1.5428,1.5443,1.5437,1.5449,1.5457,1.5458,1.5508,1.5481,1.5512,1.5565,1.5578,1.5592,1.5689,1.5667,1.5699,1.5754,1.5792,1.5804,1.5814,1.585,1.5863,1.5707,1.5707,1.5707,0,1.5415,1.5463,1.5445,1.5485,1.55,1.5466,1.5514,1.5525,1.5548,1.556,1.5535,1.5601,1.561,1.5676,1.57,1.5712,1.5725,1.5697,1.5803,1.5814,1.5823,1.5857,1.587,1.5711,1.571,1.571,1.5709,0,1.5523,1.5558,1.5594,1.5616,1.5635,1.5678,1.5669,1.569,1.5677,1.5675,1.5728,1.5737,1.5767,1.5782,1.5769,1.5846,1.5832,1.5806,1.5762,1.5841,1.5873,1.5886,1.5716,1.5715,1.5713,1.5713,0,0,1.5651,1.5662,1.5676,1.5686,1.5699,1.5726,1.5769,1.5797,1.5817,1.5834,1.5871,1.5916,1.5892,1.5908,1.5897,1.593,1.6008,1.5899,1.5899,1.592,1.6095,1.6115,1.613,1.5993,1.5995,1.5997,1.6093,0,1.5742,1.5814,1.58,1.5871,1.5903,1.5872,1.591,1.5923,1.5923,1.5951,1.5951,1.5984,1.5949,1.5958,1.599,1.5991,1.6043,1.5984,1.6028,1.603,1.6025,1.6146,1.6167,1.6257,1.6106,1.6108,1.6109,0,1.5858,1.5879,1.5953,1.5962,1.5975,1.6009,1.6034,1.6061,1.6076,1.6074,1.6091,1.6074,1.6118,1.6074,1.6136,1.6096,1.6114,1.6117,1.6121,1.6125,1.6075,1.6154,1.6286,1.63,1.6128,1.6127,1.6125,0,1.5944,1.5991,1.6041,1.6051,1.6063,1.6087,1.6094,1.6106,1.6124,1.6147,1.6159,1.6187,1.6202,1.6225,1.6216,1.6184,1.628,1.6235,1.6281,1.6281,1.6303,1.6301,1.6439,1.6313,1.6313,1.6313,1.6312,0,1.6047,1.6094,1.608,1.6111,1.6164,1.6148,1.62,1.6203,1.6215,1.6247,1.6223,1.6254,1.624,1.6272,1.6265,1.6318,1.6325,1.6326,1.6323,1.6328,1.6328,1.6339,1.6333,1.6316,1.6315,1.6315,1.6314,0,1.6152,1.6144,1.6198,1.6205,1.6208,1.6246,1.6252,1.6283,1.628,1.6322,1.6331,1.6328,1.6363,1.6357,1.6396,1.6392,1.6458,1.6448,1.6453,1.6451,1.6497,1.6493,1.6648,1.6668,1.6528,1.6529,1.6531,0,1.6218,1.6254,1.6265,1.6284,1.6292,1.6324,1.6342,1.6328,1.6348,1.6369,1.6397,1.643,1.6455,1.6514,1.6516,1.6546,1.6537,1.6589,1.6542,1.6546,1.6539,1.6537,1.6541,1.6599,1.6601,1.6602,1.6603,0,1.6338,1.6332,1.6359,1.6385,1.6407,1.6427,1.6445,1.6462,1.645,1.6475,1.651,1.653,1.657,1.6603,1.6632,1.664,1.662,1.6618,1.663,1.6635,1.6637,1.6637,1.6479,1.6614,1.6613,1.6612,1.6612,1.6611,1.6426,1.6456,1.6468,1.6499,1.6511,1.6528,1.6557,1.6559,1.6587,1.6618,1.6608,1.6649,1.6665,1.6701,1.6712,1.6745,1.6726,1.6743,1.6748,1.6753,1.6759,1.6631,1.675,1.675,1.6749,1.6749,1.6749,0,1.6544,1.6551,1.6579,1.6604,1.6629,1.6607,1.6626,1.6649,1.6684,1.67,1.6726,1.6767,1.68,1.6805,1.6836,1.6862,1.6853,1.687,1.6869,1.6871,1.6774,1.676,1.6876,1.6876,1.6876,1.6876,1.6876,1.6876,1.6608,1.6659,1.6655,1.6712,1.6719,1.6757,1.677,1.6786,1.6799,1.6846,1.6872,1.6875,1.6888,1.692,1.6949,1.695,1.6963,1.6984,1.6982,1.689,1.6878,1.6866,1.6853,1.6987,1.6987,1.7076,1.7077,1.7078]},{"header":{"parameterUnit":"m.s-1","parameterCategory":1,"la1":30.2991,"la2":30.254,"lo1":-89.0895,"lo2":-89.0444,"dy":0.0017,"dx":0.0017,"nx":28,"ny":28,"refTime":"2026-01-03T03:00:00:Z","depth":0,"parameterNumber":3,"parameterNumberName":"V-component_of_WINDS"},"data":[0,0,0,0,0,0,0,0,0,0,0,0,0,0,0,0,0,0,0,0,0,0,0,0,0,0,0,0,0,0,0,0,0,0,0,0,0,0,0,0,0,0,0,0,0,0,0,0,0,0,0,0,0,0,0,0,0,0,5.175,5.1752,0,5.1873,5.1874,5.1876,5.1851,5.1849,5.1847,5.1845,5.197,5.1975,5.1981,0,0,0,0,0,0,0,0,0,0,0,0,0,5.1496,5.1501,5.175,5.1752,5.1753,5.1873,5.1874,5.1876,5.1852,5.1849,5.1846,5.1844,5.1968,5.1975,5.1981,0,0,0,0,0,0,0,0,0,0,0,0,0,5.1611,5.1502,5.175,5.1756,5.1757,5.1872,5.1874,5.1877,5.1852,5.1849,5.1846,5.1843,5.1966,5.1974,5.1982,5.2099,0,0,5.2007,5.2011,0,0,0,0,0,0,0,0,5.1605,5.1621,5.1753,5.1755,5.1758,5.1843,5.1831,5.1951,5.1853,5.1816,5.1845,5.1841,5.1931,5.1942,5.1972,5.2105,5.211,5.2008,5.2013,5.2016,5.2018,0,0,0,0,0,0,0,5.1597,5.1615,5.1799,5.1755,5.1758,5.1752,5.1765,5.1853,5.1891,5.1819,5.1818,5.1833,5.1931,5.1964,5.1975,5.2112,5.2007,5.2015,5.202,5.2023,5.2349,5.2353,0,0,0,0,0,0,5.1587,5.1609,5.1795,5.1802,5.1671,5.176,5.1774,5.1819,5.189,5.1897,5.1835,5.1831,5.1952,5.1965,5.1979,5.2122,5.2016,5.2024,5.2028,5.2346,5.235,5.2354,0,0,0,0,0,0,5.1581,5.1604,5.179,5.1705,5.1729,5.1768,5.1819,5.1823,5.1856,5.1902,5.1908,5.1862,5.195,5.1968,5.207,5.2126,5.2027,5.2035,5.2341,5.2347,5.2352,5.2409,0,0,0,0,0,0,5.1574,5.1602,5.1646,5.1706,5.1733,5.1879,5.1822,5.1828,5.187,5.1866,5.1929,5.1936,5.1949,5.2058,5.2078,5.2136,5.2041,5.2336,5.2344,5.2351,5.2402,5.2416,5.2427,0,0,0,0,0,5.1565,5.1657,5.1649,5.1671,5.179,5.1882,5.1898,5.191,5.1875,5.1921,5.195,5.1934,5.2116,5.2069,5.2091,5.2152,5.2333,5.2342,5.235,5.2396,5.2413,5.2427,0,0,0,0,0,0,5.1602,5.1665,5.1657,5.1771,5.1821,5.1878,5.1936,5.1927,5.1989,5.1982,5.1995,5.2009,5.2114,5.2143,5.2088,5.227,5.222,5.2233,5.2247,5.2264,5.2276,5.2267,5.2048,0,0,0,0,0,5.1624,5.1693,5.1744,5.184,5.1866,5.1897,5.1937,5.1943,5.1996,5.2017,5.2054,5.2106,5.2175,5.2221,5.2287,5.2405,5.242,5.2458,5.2471,5.2481,5.2493,5.256,5.2578,5.2382,5.2382,5.2382,0,0,5.1669,5.1712,5.1755,5.1849,5.1889,5.1961,5.1915,5.1993,5.2047,5.2029,5.2129,5.2157,5.2216,5.2328,5.2379,5.2355,5.255,5.2492,5.25,5.2507,5.2571,5.2589,5.2606,5.2388,5.2387,5.2386,0,0,5.1788,5.1827,5.1912,5.1953,5.2015,5.2035,5.2055,5.2113,5.2132,5.2232,5.2221,5.2285,5.2403,5.2447,5.2484,5.2621,5.2609,5.2642,5.2709,5.2774,5.2789,5.2803,5.2854,5.2871,5.2653,5.2654,5.2654,0,5.1837,5.1946,5.1957,5.2037,5.2079,5.2066,5.2153,5.2192,5.2272,5.2302,5.2273,5.2423,5.2462,5.2584,5.2618,5.2648,5.2673,5.2636,5.2786,5.28,5.2813,5.2861,5.288,5.2657,5.2657,5.2656,5.2656,0,5.2003,5.2079,5.214,5.2218,5.2267,5.235,5.2374,5.2422,5.2423,5.2446,5.2549,5.2595,5.2671,5.27,5.2702,5.2824,5.2807,5.2782,5.2733,5.2835,5.2881,5.29,5.2663,5.2661,5.266,5.2659,0,0,5.215,5.2234,5.2256,5.2292,5.2359,5.2418,5.2501,5.2576,5.2617,5.2673,5.2743,5.2844,5.2822,5.2865,5.2871,5.2928,5.3036,5.2896,5.2898,5.2922,5.3175,5.3195,5.3216,5.3028,5.3031,5.3034,5.3171,0,5.2277,5.2423,5.2436,5.2568,5.2639,5.2628,5.27,5.2749,5.2773,5.2837,5.2862,5.2935,5.2899,5.2925,5.2981,5.3011,5.3087,5.3001,5.3095,5.3098,5.3082,5.324,5.326,5.3387,5.3189,5.3192,5.3194,0,5.2445,5.2507,5.2646,5.2704,5.2735,5.2799,5.287,5.293,5.2986,5.2999,5.3048,5.3047,5.3132,5.3078,5.3197,5.3139,5.3177,5.3198,5.3203,5.3214,5.3153,5.3256,5.3428,5.3448,5.3222,5.322,5.3218,0,5.2541,5.2658,5.2757,5.2788,5.2858,5.2904,5.2936,5.2988,5.3033,5.3094,5.3123,5.3193,5.3232,5.3287,5.3305,5.3264,5.3424,5.3371,5.3439,5.3439,5.3474,5.3472,5.3656,5.3496,5.3496,5.3496,5.3495,0,5.2683,5.2769,5.2801,5.2862,5.2959,5.2973,5.3068,5.3096,5.3143,5.321,5.3204,5.3267,5.3286,5.3353,5.3367,5.3465,5.3482,5.3496,5.3499,5.3497,5.3496,5.3524,5.3517,5.3501,5.35,5.3499,5.3498,0,5.2807,5.2832,5.2939,5.2997,5.3014,5.3083,5.3132,5.3191,5.3214,5.3299,5.3319,5.3355,5.3433,5.3456,5.355,5.3559,5.3674,5.3668,5.3656,5.3657,5.3724,5.3718,5.3934,5.3964,5.3783,5.3784,5.3786,0,5.2897,5.2963,5.3028,5.3073,5.3107,5.3178,5.3224,5.324,5.3288,5.3357,5.3409,5.3486,5.3548,5.3673,5.3708,5.378,5.3777,5.3848,5.3788,5.3785,5.378,5.3777,5.3785,5.3859,5.3861,5.3863,5.3864,0,5.3054,5.3064,5.313,5.3202,5.3257,5.3313,5.3368,5.3405,5.3429,5.3483,5.3563,5.3612,5.3708,5.3785,5.3858,5.389,5.3883,5.3883,5.3903,5.3903,5.3894,5.3902,5.3689,5.3878,5.3877,5.3876,5.3875,5.3874,5.3166,5.3225,5.328,5.3355,5.3398,5.3449,5.3508,5.3539,5.3606,5.3686,5.3691,5.3778,5.3833,5.393,5.3967,5.4035,5.4015,5.4043,5.4051,5.4058,5.4064,5.3881,5.4048,5.4048,5.4048,5.4047,5.4047,0,5.3325,5.336,5.3428,5.3506,5.3565,5.3551,5.3611,5.3662,5.3739,5.3791,5.3853,5.3946,5.4021,5.4061,5.4136,5.4183,5.4182,5.4203,5.42,5.4208,5.4077,5.4054,5.4203,5.4203,5.4203,5.4203,5.4203,5.4203,5.3414,5.3514,5.353,5.3651,5.3686,5.3772,5.3808,5.3856,5.3897,5.4001,5.4064,5.409,5.4138,5.4217,5.4285,5.4295,5.4324,5.4348,5.4356,5.4233,5.4217,5.4202,5.418,5.4353,5.4354,5.4481,5.4482,5.4483]}]]